Printer-friendly version

IAU Minor Planet Center

Minor Planet Center

MPEC 2008-C97 : 2008 CC119

The following Minor Planet Electronic Circular may be linked-to from your own Web pages, but must not otherwise be redistributed electronically.


Read MPEC 2008-C96 Read MPEC 2008-C98


M.P.E.C. 2008-C97                                Issued 2008 Feb. 14, 19:26 UT

     The Minor Planet Electronic Circulars contain information on unusual
         minor planets and routine data on comets.  They are published
   on behalf of Commission 20 of the International Astronomical Union by the
          Minor Planet Center, Smithsonian Astrophysical Observatory,
                          Cambridge, MA 02138, U.S.A.

             Prepared using the Tamkin Foundation Computer Network

                              MPC@CFA.HARVARD.EDU
          URL http://www.cfa.harvard.edu/iau/mpc.html  ISSN 1523-6714

                                  2008 CC119

Observations:
     K08CB9C* C2008 02 12.46986 14 10 20.17 -07 32 13.4          19.3   EC097704
     K08CB9C  C2008 02 12.48217 14 10 20.00 -07 32 50.7          19.5   EC097704
     K08CB9C  C2008 02 12.49444 14 10 19.71 -07 33 27.7          19.5   EC097704
     K08CB9C  C2008 02 13.43206 14 10 07.08 -08 20 23.1          19.1 R EC097734
     K08CB9C  C2008 02 13.43362 14 10 07.08 -08 20 29.0          19.4 R EC097734
     K08CB9C  C2008 02 13.43666 14 10 06.99 -08 20 38.6          19.1 R EC097734
     K08CB9C  C2008 02 13.43817 14 10 06.93 -08 20 42.6          19.0 R EC097734

Observer details:
704 Lincoln Laboratory ETS, New Mexico.  Observers M. Bezpalko, D. Torres,
    R. Kracke, G. Spitz, J. Kistler.  Measurers J. Stuart, S. Scruggs.  1.0-m
    f/2.15 reflector + CCD.
734 Farpoint Observatory.  Observer G. Hug.  0.7-m reflector + CCD.

Orbital elements:
2008 CC119                                               Earth MOID = 0.1964 AU
Epoch 2008 Feb. 4.0 TT = JDT 2454500.5                  MPC
M   9.81893              (2000.0)            P               Q
n   0.30008569     Peri.  134.08579     -0.53601266     -0.84116854
a   2.2095603      Node   347.72354     +0.64587226     -0.35399251
e   0.4989115      Incl.   19.67690     +0.54363540     -0.40880900
P   3.28           H   19.0           G   0.15
From 7 observations 2008 Feb. 12-13.

Ephemeris:
2008 CC119               a,e,i = 2.21, 0.50, 20                  q = 1.1072
Date    TT    R. A. (2000) Decl.     Delta      r     Elong.  Phase     V
2008 02 14    14 09.96   -08 48.5    0.427    1.209   111.2    49.6    19.4
2008 02 24    14 03.39   -16 53.9    0.425    1.257   120.0    43.0    19.3
2008 03 05    13 49.24   -24 10.4    0.432    1.311   129.6    35.7    19.2
2008 03 15    13 28.02   -29 59.2    0.453    1.369   138.9    28.5    19.2
2008 03 25    13 02.81   -33 50.9    0.490    1.431   146.2    22.8    19.3
2008 04 04    12 38.33   -35 42.9    0.543    1.495   149.8    19.7    19.5
2008 04 14    12 18.87   -36 00.8    0.613    1.561   148.9    19.4    19.9
2008 04 24    12 06.46   -35 23.7    0.699    1.627   144.7    20.9    20.3
2008 05 04    12 00.89   -34 23.4    0.799    1.693   138.9    23.1    20.8
2008 05 14    12 01.10   -33 21.1    0.911    1.760   132.5    25.0    21.2
2008 05 24    12 05.78   -32 28.0    1.035    1.826   126.1    26.6    21.6
2008 06 03    12 13.78   -31 48.5    1.169    1.891   119.8    27.7    22.0

Sonia Keys                   (C) Copyright 2008 MPC           M.P.E.C. 2008-C97

Read MPEC 2008-C96 Read MPEC 2008-C98


Our Web policy. Index to the CBAT/MPC/ICQ pages.


Valid HTML 4.01!